COSMOS 1670 DEB, 44569

Orbit data source: Space-Track

COSMOS 1670 DEB, 44569 is space debris in LEO originally from a launch on Thu, 01 Aug 1985 UTC launched from the Tyuratam Missile And Space Complex (TTMTR). Debris objects in space refer to the collection of defunct objects orbiting the Earth. Examples of debris include non-operational satellites, rocket bodies, and fragments generated from explosions, collisions, or faulty payload assembly.

Loading next visibility...
Identifier
44569, 1985-064F
Orbit
LEO
Country
Flag of CISCIS
Related business
Manufacturer
Unknown
Mission
Spacecraft
Bus & Motor
Unknown
Mass
Unknown
Launch date (UTC)
1985-08-01 (40 years ago)
Launch vehicle
Unknown
Launch site
Tyuratam Missile And Space Complex (TTMTR)
Object type
Payload
Rocket body
Debris
Shape & HBR
Unknown shape, 0.1 m
Radar Cross Section
Small (<0.1 m²)

Expand to show TLE details & history
Last TLE update: 2 days ago

TLE from 2 days ago
0 COSMOS 1670 DEB
1 44569U 85064F   25290.79695663  .00027728  00000-0  70374-2 0  9999
2 44569  64.9042 335.5193 0006445 148.7760 329.9721 14.50665752 70782
Epoch: 2025-10-17T19:07Z
TLE epoch observation values (Epoch: 2025-10-17T19:07:37.052Z)
Latitude
52.70862°
Longitude
164.36618°
Altitude
727.103 km
Speed
7.499 km/s
True Right ascension
07h 51m 13s
True Declination
52° 32' 31"
Sunlit
Object was in daylight at epoch
Visualization orbit readout
Latitude
Unknown
Longitude
Unknown
Altitude
Unknown
Speed
Unknown
Apparent Right ascension
Unknown
Apparent Declination
Unknown
Sunlit
N/A
Visualization observer readout
Local Sidereal Time
14:48:41
Azimuth
Unknown
Elevation
Unknown
Doppler factor
Unknown
Orbital elements
Apogee altitude
726.628 km
Perigee altitude
717.476 km
Semi-major axis
7,100.189 km
Eccentricity
0.00064
Inclination
64.9042°
RAAN
335.5193°
Arg. of periapsis
148.776°
True anomaly
329.93512°
Mean anomaly
329.9721°
Eccentric anomaly
329.95361°
Mean motion
3.62776 °/min
Orbital period
99.23 mins
BSTAR
0.0070374
Loading maneuver chart data...
Computing Atmospheric mass density...
Loading historical data...
Loading historical data...
Loading historical data...
Loading historical data...
Loading historical data...
Loading historical data...
Loading historical data...

Documentation

Showing up to 5 results
|